TimeCDT,TemperatureF,Dew PointF,Humidity,Sea Level PressureIn,VisibilityMPH,Wind Direction,Wind SpeedMPH,Gust SpeedMPH,PrecipitationIn,Events,Conditions,WindDirDegrees,DateUTC
12:52 AM,39.9,34.0,79,30.31,10.0,NE,12.7,-,N/A,,Clear,40,2013-05-24 05:52:00
1:52 AM,39.0,34.0,82,30.32,10.0,NNE,6.9,-,N/A,,Clear,20,2013-05-24 06:52:00
2:52 AM,39.0,34.0,82,30.32,10.0,NNE,6.9,-,N/A,,Clear,30,2013-05-24 07:52:00
3:52 AM,36.0,34.0,93,30.35,10.0,WNW,4.6,-,N/A,,Clear,300,2013-05-24 08:52:00
4:52 AM,36.0,33.1,89,30.37,10.0,NW,5.8,-,N/A,,Clear,320,2013-05-24 09:52:00
5:52 AM,35.1,34.0,96,30.37,10.0,NNW,3.5,-,N/A,,Clear,340,2013-05-24 10:52:00
6:52 AM,39.9,36.0,86,30.40,10.0,NW,3.5,-,N/A,,Clear,310,2013-05-24 11:52:00
7:52 AM,45.0,35.1,68,30.43,10.0,North,9.2,-,N/A,,Clear,10,2013-05-24 12:52:00
8:52 AM,48.0,35.1,61,30.45,10.0,NNE,5.8,-,N/A,,Clear,20,2013-05-24 13:52:00
9:52 AM,50.0,34.0,54,30.45,10.0,NE,9.2,-,N/A,,Clear,50,2013-05-24 14:52:00
10:52 AM,53.1,36.0,52,30.44,10.0,NNE,6.9,-,N/A,,Clear,30,2013-05-24 15:52:00
11:52 AM,55.9,37.0,49,30.43,10.0,NNE,8.1,-,N/A,,Clear,20,2013-05-24 16:52:00
12:52 PM,57.9,36.0,44,30.43,10.0,Variable,3.5,-,N/A,,Clear,0,2013-05-24 17:52:00
1:52 PM,60.1,37.9,44,30.40,10.0,NE,4.6,-,N/A,,Clear,40,2013-05-24 18:52:00
2:52 PM,62.1,36.0,38,30.39,10.0,East,5.8,-,N/A,,Clear,100,2013-05-24 19:52:00
3:52 PM,63.0,37.0,38,30.36,10.0,NE,6.9,-,N/A,,Clear,40,2013-05-24 20:52:00
4:52 PM,63.0,34.0,34,30.34,10.0,East,9.2,-,N/A,,Clear,90,2013-05-24 21:52:00
5:52 PM,61.0,30.9,32,30.35,10.0,East,8.1,-,N/A,,Clear,100,2013-05-24 22:52:00
6:52 PM,60.1,32.0,35,30.34,10.0,East,8.1,-,N/A,,Clear,80,2013-05-24 23:52:00
7:52 PM,55.0,35.1,47,30.33,10.0,East,8.1,-,N/A,,Clear,80,2013-05-25 00:52:00
8:52 PM,50.0,37.0,61,30.36,10.0,East,4.6,-,N/A,,Clear,80,2013-05-25 01:52:00
9:52 PM,48.0,37.9,68,30.38,10.0,ENE,4.6,-,N/A,,Clear,70,2013-05-25 02:52:00
10:52 PM,46.9,36.0,66,30.39,10.0,Calm,Calm,-,N/A,,Clear,0,2013-05-25 03:52:00
11:52 PM,46.0,37.9,73,30.38,10.0,ENE,3.5,-,N/A,,Clear,70,2013-05-25 04:52:00